{"data":{"norad_id":67778,"epoch":"2026-05-24T22:30:11.638080Z","epoch_age_seconds":70509,"freshness":"FRESH","line1":"1 67778U 26030Q   26144.93763470  .00002620  00000+0  37241-3 0  9991","line2":"2 67778  51.8987 226.0238 0000390 113.1723 246.9280 14.79948335 16605","mean_motion":14.79948335,"eccentricity":3.9e-5,"inclination_deg":51.8987,"raan_deg":226.0238,"arg_perigee_deg":113.1723,"mean_anomaly_deg":246.928,"bstar":0.00037241,"rev_number":1660,"period_min":97.300693946184,"perigee_km":629.21392345341,"apogee_km":629.76051814263,"semimajor_km":7007.624220798,"source":"CELESTRAK","updated_at":"2026-05-25T13:38:07.258569Z"}}